Location: Newark
(32.8369°N, 35.2736°E)
Time: 07:26:44
(UTC+00:00)

LightSail 2 - Pass Details

Date: 20 November 2019
Orbit: 696 x 730 km, 24.0° (Epoch: 10 December)

Event Time Altitude Azimuth Distance (km) Brightness Sun altitude
Exits shadow 02:00:23 18° 183° (S) 1,740 7.1 -27.7°
Drops below altitude 10° 02:03:00 10° 153° (SSE) 2,202 8.0 -27.2°
Sets 02:06:08 0° 135° (SE) 3,126 9.2 -26.5°
